IRIDIUM 33 DEB, 39777

Orbit data source: Space-Track

IRIDIUM 33 DEB, 39777 is space debris in LEO originally from a launch on Sun, 14 Sep 1997 UTC launched from the Tyuratam Missile And Space Complex (TTMTR). The debris from Iridium 33, an American commercial communications satellite, has been tracked extensively since its accidental collision with the defunct Russian satellite Cosmos 2251 in 2009. This event, occurring at high speed in low Earth orbit (LEO), generated thousands of pieces of space debris, significantly increasing the risk of further collisions. The Iridium 33 debris cloud has impacted space traffic management and orbital debris mitigation strategies, making it a subject of ongoing study in space situational awareness.

Loading next visibility...
Identifier
39777, 1997-051AAJ
Orbit
LEO
Country
Flag of USUS
Related business
Manufacturer
Unknown
Mission
Spacecraft
Bus & Motor
Unknown
Mass
Unknown
Launch date (UTC)
1997-09-14 (29 years ago)
Launch vehicle
Unknown
Launch site
Tyuratam Missile And Space Complex (TTMTR)
Object type
Payload
Rocket body
Debris
Shape & HBR
Unknown shape, 0.1 m
Radar Cross Section
Small (<0.1 m²)

Expand to show TLE details & history
Last TLE update: 22 hours ago

TLE from 22 hours ago
0 IRIDIUM 33 DEB
1 39777U 97051AAJ 26094.50103020  .00017739  00000-0  36254-2 0  9996
2 39777  85.9588 120.1868 0060066 162.7033 197.6243 14.59619686618286
Epoch: 2026-04-04T12:01Z
TLE epoch observation values (Epoch: 2026-04-04T12:01:29.009Z)
Latitude
0.00006°
Longitude
106.99603°
Altitude
738.003 km
Speed
7.464 km/s
True Right ascension
08h 00m 44s
True Declination
0° 00' 00"
Sunlit
Object was in daylight at epoch
Visualization orbit readout
Latitude
Unknown
Longitude
Unknown
Altitude
Unknown
Speed
Unknown
Apparent Right ascension
Unknown
Apparent Declination
Unknown
Sunlit
N/A
Visualization observer readout
Local Sidereal Time
16:04:03
Azimuth
Unknown
Elevation
Unknown
Doppler factor
Unknown
Orbital elements
Apogee altitude
733.804 km
Perigee altitude
648.877 km
Semi-major axis
7,069.477 km
Eccentricity
0.00601
Inclination
85.9588°
RAAN
120.1868°
Arg. of periapsis
162.7033°
True anomaly
197.41738°
Mean anomaly
197.6243°
Eccentric anomaly
197.52069°
Mean motion
3.65142 °/min
Orbital period
98.59 mins
BSTAR
0.0036254
Loading maneuver chart data...
Computing Atmospheric mass density...

Documentation

Showing up to 5 results
|